• In Czech Republic
  • List of Countries
  • For 7 days
  • Water Temperature
  • Satellite Maps
  • Weather Map
  • Weather Widgets
  • user-avatar
    Login

    Hourly Weather Jalalabad

    Today, 16 August, Thursday

    Time Temperature Precipitation Wind Pressure Humidity
    00:00 +33°C° 0.1 mm 1 mps 705 mmHg 57%
    01:00 +32°C° 0.1 mm 1 mps 705 mmHg 61%
    02:00 +32°C° 0.1 mm 1 mps 705 mmHg 64%
    03:00 +29°C° 0.1 mm 0 mps 705 mmHg 66%
    04:00 +29°C° 0.1 mm 0 mps 705 mmHg 69%
    05:00 +28°C° 0.1 mm 0 mps 705 mmHg 72%
    06:00 +29°C° 0.1 mm 0 mps 706 mmHg 68%
    07:00 +32°C° 0.1 mm 1 mps 706 mmHg 64%
    08:00 +32°C° 0.1 mm 1 mps 706 mmHg 60%
    09:00 +34°C° 0 mm 1 mps 706 mmHg 52%
    10:00 +35°C° 0 mm 1 mps 706 mmHg 44%
    11:00 +37°C° 0 mm 2 mps 706 mmHg 36%
    12:00 +38°C° 0 mm 2 mps 706 mmHg 34%
    13:00 +39°C° 0 mm 2 mps 705 mmHg 32%
    14:00 +40°C° 0 mm 2 mps 705 mmHg 31%
    15:00 +40°C° 0.2 mm 3 mps 704 mmHg 31%
    16:00 +40°C° 0.2 mm 3 mps 704 mmHg 31%
    17:00 +40°C° 0.2 mm 3 mps 704 mmHg 31%
    18:00 +39°C° 0.1 mm 2 mps 704 mmHg 35%
    19:00 +38°C° 0.1 mm 2 mps 704 mmHg 38%
    20:00 +36°C° 0.1 mm 1 mps 704 mmHg 42%
    21:00 +35°C° 0.1 mm 1 mps 704 mmHg 44%
    22:00 +34°C° 0.1 mm 1 mps 704 mmHg 47%
    23:00 +34°C° 0.1 mm 1 mps 704 mmHg 49%

    Tomorrow, 17 August, Friday

    Time Temperature Precipitation Wind Pressure Humidity
    00:00 +33°C° 0 mm 1 mps 704 mmHg 51%
    01:00 +32°C° 0 mm 1 mps 704 mmHg 53%
    02:00 +32°C° 0 mm 1 mps 704 mmHg 54%
    03:00 +29°C° 0 mm 0 mps 703 mmHg 55%
    04:00 +29°C° 0 mm 0 mps 703 mmHg 56%
    05:00 +28°C° 0 mm 0 mps 703 mmHg 57%
    06:00 +29°C° 0 mm 0 mps 704 mmHg 50%
    07:00 +30°C° 0 mm 0 mps 704 mmHg 44%
    08:00 +34°C° 0 mm 1 mps 704 mmHg 37%
    09:00 +35°C° 0 mm 1 mps 704 mmHg 33%
    10:00 +36°C° 0 mm 1 mps 704 mmHg 28%
    11:00 +37°C° 0 mm 1 mps 704 mmHg 23%
    12:00 +39°C° 0 mm 2 mps 703 mmHg 22%
    13:00 +40°C° 0 mm 2 mps 703 mmHg 21%
    14:00 +41°C° 0 mm 2 mps 702 mmHg 20%
    15:00 +41°C° 0 mm 2 mps 702 mmHg 20%
    16:00 +41°C° 0 mm 2 mps 702 mmHg 21%
    17:00 +42°C° 0 mm 3 mps 701 mmHg 21%
    18:00 +40°C° 0 mm 2 mps 701 mmHg 25%
    19:00 +38°C° 0 mm 2 mps 702 mmHg 29%
    20:00 +36°C° 0 mm 1 mps 702 mmHg 34%
    21:00 +35°C° 0 mm 1 mps 702 mmHg 36%
    22:00 +35°C° 0 mm 1 mps 702 mmHg 38%
    23:00 +34°C° 0 mm 1 mps 702 mmHg 41%

    Day after tomorrow, 18 August, Saturday

    Time Temperature Precipitation Wind Pressure Humidity
    00:00 +33°C° 0 mm 1 mps 702 mmHg 43%
    01:00 +33°C° 0 mm 1 mps 702 mmHg 45%
    02:00 +32°C° 0 mm 1 mps 702 mmHg 47%
    03:00 +31°C° 0 mm 1 mps 702 mmHg 49%
    04:00 +30°C° 0 mm 1 mps 702 mmHg 50%
    05:00 +28°C° 0 mm 0 mps 701 mmHg 52%
    06:00 +29°C° 0 mm 0 mps 702 mmHg 46%
    07:00 +30°C° 0 mm 0 mps 702 mmHg 40%
    08:00 +32°C° 0 mm 0 mps 703 mmHg 34%
    09:00 +35°C° 0 mm 1 mps 703 mmHg 30%
    10:00 +36°C° 0 mm 1 mps 703 mmHg 26%
    11:00 +37°C° 0 mm 1 mps 703 mmHg 22%
    12:00 +39°C° 0 mm 2 mps 703 mmHg 21%
    13:00 +40°C° 0 mm 2 mps 702 mmHg 20%
    14:00 +41°C° 0 mm 2 mps 702 mmHg 19%
    15:00 +42°C° 0.1 mm 3 mps 702 mmHg 20%
    16:00 +42°C° 0.1 mm 3 mps 701 mmHg 21%
    17:00 +42°C° 0.1 mm 3 mps 701 mmHg 22%
    18:00 +40°C° 0.3 mm 2 mps 701 mmHg 27%
    19:00 +38°C° 0.3 mm 2 mps 702 mmHg 32%
    20:00 +36°C° 0.3 mm 1 mps 702 mmHg 36%
    21:00 +35°C° 0.2 mm 1 mps 702 mmHg 37%
    22:00 +35°C° 0.2 mm 1 mps 702 mmHg 39%
    23:00 +34°C° 0.2 mm 1 mps 703 mmHg 40%

    19 August, Sunday

    Time Temperature Precipitation Wind Pressure Humidity
    00:00 +33°C° 0 mm 1 mps 702 mmHg 41%
    01:00 +33°C° 0 mm 1 mps 702 mmHg 42%
    02:00 +32°C° 0 mm 1 mps 702 mmHg 43%
    03:00 +32°C° 0.1 mm 1 mps 702 mmHg 45%
    04:00 +31°C° 0.1 mm 1 mps 702 mmHg 46%
    05:00 +31°C° 0.1 mm 1 mps 702 mmHg 48%
    06:00 +32°C° 0 mm 1 mps 702 mmHg 45%
    07:00 +33°C° 0 mm 1 mps 703 mmHg 43%
    08:00 +34°C° 0 mm 1 mps 703 mmHg 40%
    09:00 +35°C° 0 mm 1 mps 703 mmHg 35%
    10:00 +36°C° 0 mm 1 mps 703 mmHg 30%
    11:00 +39°C° 0 mm 2 mps 703 mmHg 24%
    12:00 +40°C° 0 mm 2 mps 703 mmHg 23%
    13:00 +40°C° 0 mm 2 mps 702 mmHg 21%
    14:00 +41°C° 0 mm 2 mps 702 mmHg 20%
    15:00 +41°C° 0 mm 2 mps 702 mmHg 20%
    16:00 +43°C° 0 mm 3 mps 702 mmHg 21%
    17:00 +43°C° 0 mm 3 mps 701 mmHg 21%
    18:00 +40°C° 0 mm 2 mps 702 mmHg 26%
    19:00 +37°C° 0 mm 1 mps 702 mmHg 30%
    20:00 +36°C° 0 mm 1 mps 702 mmHg 35%
    21:00 +35°C° 0 mm 1 mps 702 mmHg 36%
    22:00 +35°C° 0 mm 1 mps 702 mmHg 38%
    23:00 +34°C° 0 mm 1 mps 703 mmHg 39%

    20 August, Monday

    Time Temperature Precipitation Wind Pressure Humidity
    00:00 +34°C° 0 mm 1 mps 702 mmHg 40%
    01:00 +33°C° 0 mm 1 mps 702 mmHg 41%
    02:00 +32°C° 0 mm 1 mps 702 mmHg 42%
    03:00 +32°C° 0 mm 1 mps 702 mmHg 42%
    04:00 +31°C° 0 mm 1 mps 702 mmHg 43%
    05:00 +30°C° 0 mm 1 mps 703 mmHg 43%
    06:00 +32°C° 0 mm 1 mps 703 mmHg 37%
    07:00 +34°C° 0 mm 1 mps 704 mmHg 30%
    08:00 +35°C° 0 mm 1 mps 704 mmHg 24%
    09:00 +36°C° 0 mm 1 mps 704 mmHg 20%
    10:00 +39°C° 0 mm 1 mps 704 mmHg 16%
    11:00 +40°C° 0 mm 2 mps 704 mmHg 12%
    12:00 +41°C° 0 mm 2 mps 704 mmHg 11%
    13:00 +42°C° 0 mm 2 mps 703 mmHg 11%
    14:00 +43°C° 0 mm 2 mps 703 mmHg 10%
    15:00 +43°C° 0 mm 2 mps 703 mmHg 10%
    16:00 +43°C° 0 mm 2 mps 703 mmHg 10%
    17:00 +43°C° 0 mm 2 mps 702 mmHg 10%
    18:00 +41°C° 0 mm 2 mps 703 mmHg 14%
    19:00 +39°C° 0 mm 1 mps 703 mmHg 17%
    20:00 +36°C° 0 mm 1 mps 703 mmHg 21%
    21:00 +35°C° 0 mm 1 mps 703 mmHg 22%
    22:00 +35°C° 0 mm 1 mps 704 mmHg 23%
    23:00 +35°C° 0 mm 2 mps 704 mmHg 24%

    21 August, Tuesday

    Time Temperature Precipitation Wind Pressure Humidity
    00:00 +35°C° 0 mm 2 mps 703 mmHg 24%
    01:00 +34°C° 0 mm 2 mps 703 mmHg 24%
    02:00 +32°C° 0 mm 2 mps 703 mmHg 23%
    03:00 +32°C° 0 mm 2 mps 703 mmHg 22%
    04:00 +31°C° 0 mm 2 mps 703 mmHg 22%
    05:00 +30°C° 0 mm 2 mps 703 mmHg 21%
    06:00 +32°C° 0 mm 2 mps 703 mmHg 17%
    07:00 +35°C° 0 mm 2 mps 704 mmHg 14%
    08:00 +37°C° 0 mm 2 mps 704 mmHg 11%
    09:00 +38°C° 0 mm 2 mps 704 mmHg 10%
    10:00 +39°C° 0 mm 3 mps 704 mmHg 10%
    11:00 +42°C° 0 mm 3 mps 704 mmHg 9%
    12:00 +43°C° 0 mm 3 mps 704 mmHg 9%
    13:00 +42°C° 0 mm 2 mps 703 mmHg 8%
    14:00 +43°C° 0 mm 2 mps 703 mmHg 8%
    15:00 +43°C° 0 mm 2 mps 703 mmHg 8%
    16:00 +43°C° 0 mm 2 mps 703 mmHg 8%
    17:00 +43°C° 0 mm 2 mps 703 mmHg 9%
    18:00 +41°C° 0 mm 2 mps 703 mmHg 12%
    19:00 +39°C° 0 mm 2 mps 703 mmHg 16%
    20:00 +36°C° 0 mm 1 mps 703 mmHg 20%
    21:00 +35°C° 0 mm 1 mps 704 mmHg 21%
    22:00 +35°C° 0 mm 2 mps 704 mmHg 23%
    23:00 +35°C° 0 mm 2 mps 704 mmHg 25%
    Show more